Regional Weather Roundup
Issued by NWS

Home | Current Version | Previous Version | Graphics & Text | Print | Product List | Glossary On
Versions: 1 2 3 4 5 6 7 8 9 10 11 12 13 14 15 16 17 18 19 20 21 22 23 24 25 26 27 28 29 30 31 32 33 34 35 36 37 38 39 40 41 42 43 44 45 46 47 48 49 50
214
ASUS43 KDMX 052308
RWRIA

WEATHER ROUNDUP FOR IOWA
NATIONAL WEATHER SERVICE DES MOINES IA
500 PM CST FRI FEB 05 2016

NOTE: "FAIR" INDICATES FEW OR NO CLOUDS BELOW 12,000 FEET WITH NO
SIGNIFICANT WEATHER AND/OR OBSTRUCTIONS TO VISIBILITY.

* - THESE STATIONS ARE NOT NWS STATIONS...THUS NOT UNDER NWS
QUALITY CONTROL.  THEY ALSO DO NOT REPORT WEATHER SUCH
AS PRECIPITATION OR FOG.

IAZ001>003-012>014-020>022-031>034-043>046-060000-
   NORTHWEST IOWA

CITY           SKY/WX    TMP DP  RH WIND       PRES   REMARKS
CARROLL *      PTCLDY    27  25  93 S14       30.24R WCI  15
CHEROKEE *     CLOUDY    28  27  93 S10       30.20F WCI  19
DENISON *      MOCLDY    28  27  93 S12       30.21R WCI  18
LE MARS *      MOCLDY    28  28 100 S10       30.21R WCI  19
ORANGE CITY *  LGT SNOW  27  27 100 S9        30.19R VSB 1   WCI  17
SHELDON *      LGT SNOW  27  27 100 S10       30.18R WCI  17
SIOUX CITY     CLOUDY    31  25  78 S7        30.22R WCI  24
SPENCER        CLOUDY    27  22  81 S10       30.20R WCI  17
STORM LAKE *   CLOUDY    27  27 100 S16       30.20R WCI  14
$$

IAZ055>058-069>071-079>083-090>094-060000-
   SOUTHWEST IOWA

CITY           SKY/WX    TMP DP  RH WIND       PRES   REMARKS
ATLANTIC *     MOCLDY    28  27  93 S10       30.25S WCI  19
AUDUBON *      LGT SNOW  28  25  86 S9        30.24F WCI  20
CLARINDA *     CLOUDY    30  30 100 S10       30.29S FOG     WCI  21
COUNCIL BLFS * CLOUDY    30  28  93 SW9       30.24R WCI  22
CRESTON *      MOCLDY    30  25  80 S14       30.27S HAZE    WCI  20
HARLAN  *      MOCLDY    28  27  93 S13       30.27R WCI  18
LAMONI         CLOUDY    32  22  66 S7        30.29S WCI  26
RED OAK *      MOCLDY    30  30 100 MISG      30.26F FOG
SHENANDOAH *   LGT SNOW  32  32 100 S9        30.28S WCI  24
$$

IAZ047>049-059>061-072>074-084-060000-
   CENTRAL IOWA

CITY           SKY/WX    TMP DP  RH WIND       PRES   REMARKS
AMES           LGT SNOW  27  21  78 S10       30.28F WCI  17
ANKENY *       MOCLDY    30  23  74 SE10      30.29F WCI  21
BOONE *        MIX PCPN  27  23  86 S12       30.25F WCI  16
CHARITON *     PTCLDY    32  19  59 S9        30.29S WCI  24
DES MOINES     LGT SNOW  30  20  66 S10       30.29S WCI  21
GRINNELL*      CLOUDY    28  21  74 S9        30.30F WCI  20
KNOXVILLE *    CLOUDY    30  19  64 SE7       30.29F WCI  23
MARSHALLTOWN   CLOUDY    26  18  71 S8        30.29S WCI  18
NEWTON *       CLOUDY    28  25  86 SE8       30.30S WCI  20
PELLA *        CLOUDY    30  19  64 SE6       30.32F WCI  24
$$

IAZ004>006-015-016-023>025-035-036-060000-
   NORTH CENTRAL IOWA

CITY           SKY/WX    TMP DP  RH WIND       PRES   REMARKS
ALGONA *       PTCLDY    23  23 100 S20       30.21F FOG     WCI   8
CLARION *      CLOUDY    23  21  93 S14       30.25S FOG     WCI  11
ESTHERVILLE    CLOUDY    24  22  91 S14       30.20R WCI  12
FORT DODGE *   CLOUDY    25  19  80 S9        30.25F WCI  15
MASON CITY     CLOUDY    22  17  81 S12       30.25F WCI  10
FOREST CITY *  CLOUDY    23  19  86 S9        30.24S WCI  13
WEBSTER CITY * MOCLDY    25  23  93 S12       30.24S FOG     WCI  14
IOWA FALLS *   CLOUDY    27  21  80 S10       30.27F HAZE    WCI  17
$$

IAZ007>011-017>019-026>030-037>042-050>054-066-060000-
   NORTHEAST IOWA

CITY           SKY/WX    TMP DP  RH WIND       PRES   REMARKS
CEDAR RAPIDS   CLOUDY    28  21  75 S6        30.32S WCI  22
CHARLES CITY * CLOUDY    21  19  93 S9        30.28F WCI  11
CLINTON *      CLOUDY    30  22  72 S3        30.35F
DECORAH *      PTCLDY    21  14  73 S6        30.27F WCI  14
DUBUQUE        CLOUDY    26  20  77 SW3       30.31F
MONTICELLO *   MOCLDY    28  19  69 S5        30.32F WCI  23
OELWEIN *      CLEAR     23  18  80 S6        30.30S WCI  16
$$

IAZ064-065-067-068-078-060000-
   EAST CENTRAL IOWA

CITY           SKY/WX    TMP DP  RH WIND       PRES   REMARKS
DAVENPORT      CLOUDY    29  18  63 CALM      30.34F
IOWA CITY      CLOUDY    29  21  72 S6        30.36F WCI  23
MT. PLEASANT * MOCLDY    34  23  64 SE5       30.36S WCI  30
MUSCATINE *    CLOUDY    30  21  69 S6        30.38R WCI  24
QUAD CITIES    CLOUDY    31  20  63 CALM      30.35F
$$

IAZ062-063-075>077-085>089-095>099-060000-
   SOUTHEAST IOWA

CITY           SKY/WX    TMP DP  RH WIND       PRES   REMARKS
BURLINGTON     PTCLDY    31  22  69 S3        30.37R
FAIRFIELD *    CLEAR     30  19  64 SE5       30.34F WCI  25
FORT MADISON * CLEAR     30  21  69 CALM      30.37S
KEOKUK *       CLEAR     32  19  59 E5        30.36S WCI  27
OSKALOOSA *    CLOUDY    30  23  74 SE6       30.33S WCI  24
CENTERVILLE *    N/A    N/A N/A N/A MISG        N/A
OTTUMWA        CLOUDY    31  19  61 SE7       30.33R WCI  24
WASHINGTON *   PTCLDY    28  23  80 SE7       30.36S WCI  21
$$

ABBREVIATIONS USED IN REMARKS
   TC - TEMPERATURES IN CELSIUS
  WCI - WIND CHILL INDEX
   HX - HEAT INDEX
  VSB - VISIBILITY
$$





USA.gov is the U.S. government's official web portal to all federal, state and local government web resources and services.